Regional Weather Roundup
Issued by NWS Upton, NY

Home | Current Version | Previous Version | Text Only | Print | Product List | Glossary On
Versions: 1 2 3 4 5 6 7 8 9 10 11 12 13 14 15 16 17 18 19 20 21 22 23 24 25 26 27 28 29 30 31 32 33 34 35 36 37 38 39 40 41 42 43 44 45 46 47 48 49 50
000
ASUS41 KOKX 251808
RWROKX

REGIONAL WEATHER ROUNDUP
NATIONAL WEATHER SERVICE NEW YORK NY
200 PM EDT SAT MAR 25 2017

NOTE: "FAIR" INDICATES FEW OR NO CLOUDS BELOW 12,000 FEET WITH NO
SIGNIFICANT WEATHER AND/OR OBSTRUCTIONS TO VISIBILITY.

NYZ071-072-176-178-NJZ106-104-251900-
NEW YORK CITY METRO AREA

CITY           SKY/WX    TMP DP  RH WIND       PRES   REMARKS
Central Park     N/A     60  39  45 NE6       30.21R
Wall St Helipt   N/A     56  40  55 NE10      30.18F
LaGuardia APRT PTSUNNY   55  40  56 NE10      30.19R
Kennedy INTL   CLOUDY    61  40  45 N9        30.19R
Breezy Point     N/A     55 N/A N/A NE7         N/A
Newark/Liberty LGT RAIN  60  43  53 N13       30.17S
Teterboro      PTSUNNY   59  41  51 N8        30.18S
$$

NYZ177-179-078>081-251900-
LONG ISLAND NEW YORK

CITY           SKY/WX    TMP DP  RH WIND       PRES   REMARKS
Jones Beach      N/A     54 N/A N/A NE8         N/A
Matinecock PT    N/A     50 N/A N/A E10         N/A
Farmingdale      N/A     60  41  49 N12       30.19R
MacArthur/ISP  PTSUNNY   59  40  49 NE7       30.20R
Shirley          N/A     53  41  63 SE9       30.21R
Westhampton      N/A     50  38  63 E9G16     30.22R
East Hampton   CLOUDY    50  38  64 E12       30.20F
Montauk        NOT AVBL
$$

NYZ052-065-067-251900-
HUDSON VALLEY

CITY           SKY/WX    TMP DP  RH WIND       PRES   REMARKS
White Plains   LGT RAIN  55  40  56 N6        30.19R
Newburgh       CLOUDY    43  39  87 N9        30.27R
Montgomery     CLOUDY    42  36  79 NE9       30.24R
Poughkeepsie   CLOUDY    38  34  85 NE6       30.26R WCI  33
Albany         LGTSLEET  35  31  85 N7        30.33R FOG     WCI  29
$$

NJZ001-105-106-008-010-013-015-019>022-104-251900-
NEW JERSEY

CITY           SKY/WX    TMP DP  RH WIND       PRES   REMARKS
Newark/Liberty LGT RAIN  60  43  53 N13       30.17S
Teterboro      PTSUNNY   59  41  51 N8        30.18S
Caldwell       CLOUDY    59  41  51 N6        30.19S
Somerville     LGT RAIN  60  48  64 CALM      30.15S
Linden         MOCLDY    61  40  46 CALM      30.18R
Sussex         PTSUNNY   46  39  76 NE8       30.23R
Andover          N/A     48  39  71 CALM      30.19F
Trenton        CLOUDY    63  49  60 CALM      30.15F
Millville        N/A     79  53  40 W16       30.14F
Atlantic City    N/A     80  50  34 W9        30.13F
Wrightstown    PTSUNNY   72  51  46 NW7       30.12F
Toms River     CLOUDY    72  51  47 E9        30.16R
Belmar         LGT RAIN  66  50  56 N5        30.18R
$$

PAZ047>061-062-071-251900-
EASTERN PENNSYLVANIA

CITY           SKY/WX    TMP DP  RH WIND       PRES   REMARKS
Philadelphia   PTSUNNY   74  50  42 W5        30.14F
Allentown      CLOUDY    67  48  50 SW7       30.15S
Scranton         N/A     55  43  63 N9        30.19R
$$

CTZ002-004>006-009-010-012-RIZ004-006-007-MAZ004-011-015-251900-
SOUTHERN NEW ENGLAND
 IN CT

CITY           SKY/WX    TMP DP  RH WIND       PRES   REMARKS
Bradley INTL   DRIZZLE   40  38  93 N9        30.26R FOG     WCI  34
Hartford       CLOUDY    43  38  82 N12       30.26R HAZE
Danbury        CLOUDY    51  41  68 N7        30.22R
Wtrbury/Oxford CLOUDY    46  34  61 NE12      30.23R
Bridgeport     CLOUDY    54  39  57 NE6       30.21S
Meriden        CLOUDY    49  37  63 NE12      30.23R
New Haven      CLOUDY    51  37  58 N8        30.22R
Chester        NOT AVBL
Groton         CLOUDY    51  38  60 SE9       30.20S
Wilimantic     CLOUDY    47  36  65 N12       30.24R

 IN RI

CITY           SKY/WX    TMP DP  RH WIND       PRES   REMARKS
Providence     CLOUDY    45  35  68 NE9       30.25R
Block Island   PTSUNNY   43  38  82 NE9       30.23R
Westerly       PTSUNNY   53  38  56 NE8       30.21R
 IN MA

CITY           SKY/WX    TMP DP  RH WIND       PRES   REMARKS
Boston         DRIZZLE   39  35  86 NE8       30.29S FOG     WCI  33
Worcester      LGT RAIN  35  33  92 N7        30.24S FOG     WCI  29
Westfield      LGT RAIN  37  36  96 N12       30.28R FOG     WCI  29
Provincetown   CLOUDY    40  34  79 N9        30.27S WCI  34
Nantucket      CLOUDY    43  34  70 NE15      30.21R
$$

ANZ330-335-338-340-345-350-353-355-251900-
COASTAL MARINE OBSERVATIONS


STATION/POSITION TIME  SKY/WX   TEMP    WIND        PRES    VSBY  WAVE
                                AIR SEA DIR/SP/G                  HT/PER
                 (UTC)          (F)     (DEG/KT/KT) (MB)    (MI)  (FT/S)
NY HARB ENTRANCE 1650            51 42   10/  4/  6 1021.4          4/ 7
20 S FIRE ISLAND 1750            43 41   50/  2/  4 1022.0          5/ 8
GREAT SOUTH BAY  NOT AVBL
23 SSW MONTAUK P 1650            44 43              1022.9          6/ 8
15 E BARNEGAT LI 1730               44                N/A           5/ 7
HUDSON CANYON    1650            47 45  250/  4/  6 1022.1          7/ 8
KINGS POINT      1742            48 39              1022.0
EXECUTION ROCKS  NOT AVBL
CENTRAL LI SOUND 1730            42     130/  6/  8   N/A           0
EASTERN LI SOUND NOT AVBL
ROBBINS REEF     1742            57      50/ 11/ 12 1021.6
$$


>>>>>>>>>>>>>>>>>>>>>>>>>>>> KEY <<<<<<<<<<<<<<<<<<<<<<<<<<<
>                                                          <
>     SKY/WX - Sky Condition/Present Weather               <
>     TMP    - Temperature in Fahrenheit                   <
>     DP     - Dew Point in Fahrenheit                     <
>     RH     - Relative Humidity in Percent                <
>     WIND   - Direction (from) and Speed in MPH           <
>     PRES   - Mean Sea Level Pressure (inches of Hg)      <
>     WCI    - Wind Chill Index                            <
>     VSB    - VISIBILITY IN MILES                         <
>     HX     - HEAT INDEX                                  <
>     TC     - TEMPERATURE IN CELSIUS                      <
>     VRB    - VARIABLE WIND DIRECTION                     <
>                                                          <
>>>>>>>>>>>>>>>>>>>>>>>>>>>> KEY <<<<<<<<<<<<<<<<<<<<<<<<<<<



USA.gov is the U.S. government's official web portal to all federal, state and local government web resources and services.